RH
94 90 84 82 84 85 80 75 77 70 71 74 78 79 90 97 98 89 64 39 30 32 33 31 27 23 22 18 15 14 20 21 17 14 10 7 6 7 7 8 9 9 15 24 35
96 95 92 87 82 80 86 87 77 74 72 74 76 78 77 85 99 79 56 42 34 31 32 29 26 21 20 18 16 17 20 18 13 10 10 8 7 8 9 10 10 11 18 20 35
95 96 96 94 90 86 83 73 80 83 85 82 86 83 72 71 84 55 41 36 29 28 32 30 23 20 22 18 17 16 19 15 11 10 9 9 8 8 9 11 8 11 21 21 32
96 96 96 95 96 95 79 65 73 92 93 94 91 88 79 71 87 38 34 32 31 28 29 28 27 27 23 24 18 19 15 15 13 11 10 11 8 9 9 11 8 8 17 20 31
96 95 96 96 95 95 90 82 63 68 87 74 91 88 78 71 72 55 54 46 40 43 28 25 27 29 28 22 20 20 16 14 12 11 10 11 10 10 10 8 8 9 15 20 28
94 96 94 94 86 83 82 87 79 64 62 92 89 90 85 88 53 52 54 54 49 33 30 24 23 23 24 23 22 18 17 15 14 13 11 12 12 12 11 9 9 10 11 15 22
94 94 89 94 93 79 74 72 73 74 61 77 94 95 86 70 53 56 53 52 53 50 30 26 21 21 22 23 18 19 20 17 15 14 14 12 15 14 11 10 10 10 10 11 12
89 93 86 81 78 75 71 65 64 66 69 66 94 92 92 58 64 59 54 46 46 49 37 26 22 22 23 19 20 21 21 25 17 15 14 14 20 14 11 11 11 10 10 11 11
86 87 89 85 81 73 64 60 53 50 66 77 84 78 78 57 64 66 64 60 51 50 48 28 26 27 25 29 26 23 28 25 21 15 14 14 18 13 11 11 12 11 11 10 12
78 81 90 88 84 69 63 56 54 55 73 73 68 93 63 52 48 85 89 88 81 63 63 31 35 39 31 29 38 31 28 25 24 17 15 15 16 14 12 10 12 12 11 11 11
77 78 85 90 88 61 74 62 34 47 68 62 55 70 44 34 68 62 94 94 80 83 96 38 51 50 38 30 26 24 23 23 20 16 17 16 15 13 13 12 11 10 11 11 11
78 80 83 89 67 47 74 59 55 71 92 48 40 36 34 37 46 42 74 92 87 94 82 75 61 42 31 27 27 24 23 22 18 16 17 16 15 12 11 12 12 11 10 10 11
82 81 79 74 39 60 58 51 57 64 77 49 34 32 28 25 39 47 62 77 95 98 89 89 47 37 31 30 30 28 25 23 20 16 15 16 17 14 12 12 11 10 9 10 10
87 88 84 68 49 52 43 51 53 59 91 42 27 23 24 26 49 39 38 71 95 98 87 89 62 38 41 36 26 31 21 20 20 20 21 14 25 18 15 15 13 11 11 12 11
88 90 85 71 66 58 44 54 57 66 88 19 17 21 21 41 32 62 47 57 96 92 94 97 83 67 40 38 29 27 19 21 21 23 22 18 23 19 15 16 15 13 12 12 13
87 90 87 61 52 44 49 60 76 94 73 27 17 34 58 65 45 40 58 62 79 94 90 98 80 86 65 39 30 25 25 24 22 24 35 26 24 24 20 16 14 12 11 11 12
82 78 80 60 59 53 51 65 90 88 28 25 38 34 36 24 45 64 66 100 92 98 97 76 92 79 73 87 57 50 34 55 56 52 70 30 29 23 16 14 13 12 12 11 11
77 60 68 63 59 51 57 78 82 38 35 24 40 33 21 79 80 89 100 96 95 98 99 88 88 81 78 92 77 58 52 71 88 84 66 50 56 35 18 13 12 11 11 11 12
67 61 48 39 44 55 78 85 56 37 24 45 48 37 27 27 76 80 96 95 91 99 99 100 98 72 73 71 78 73 69 52 66 46 48 36 35 27 20 16 14 13 12 13 13
69 53 46 71 67 68 91 68 46 32 30 33 60 40 33 30 44 42 78 94 97 100 100 98 92 43 64 75 85 94 72 84 76 96 84 38 35 33 24 20 16 14 14 13 13
70 60 38 69 79 86 93 63 44 30 28 62 64 35 36 34 32 32 34 47 74 91 81 100 100 75 45 91 88 98 99 90 82 92 80 59 38 21 20 19 19 17 16 18 23
58 87 42 60 84 99 84 51 42 38 39 49 62 60 44 29 32 36 68 53 55 49 82 98 97 86 88 68 58 72 93 92 98 100 93 54 40 19 21 19 19 19 16 18 21
71 59 39 43 94 81 53 43 35 39 44 64 72 43 36 39 49 39 43 65 44 53 71 72 90 84 53 70 87 100 100 100 100 98 74 75 54 24 23 22 23 30 31 32 28
81 88 82 67 56 58 57 59 49 34 35 43 52 39 44 51 39 47 45 56 49 47 62 66 77 78 88 94 97 96 97 100 99 99 95 60 40 25 39 41 35 34 34 33 29
80 82 54 82 84 58 47 47 45 39 27 26 37 47 60 86 63 48 41 41 47 47 61 70 81 72 72 67 74 83 96 90 95 97 97 61 47 32 52 64 40 30 31 31 31
99 89 59 67 50 54 53 54 48 43 37 40 53 45 49 70 91 95 96 61 60 41 48 73 77 69 75 53 50 58 60 55 64 63 70 64 59 39 38 59 54 36 33 37 35
65 59 77 70 63 69 63 47 42 38 38 33 44 49 54 42 43 53 62 64 48 50 53 74 96 76 67 54 63 86 61 44 41 39 39 49 41 34 33 56 61 44 31 31 30
Wind_Speed
16 16 17 17 17 17 17 20 21 21 21 23 23 24 26 23 25 23 26 24 18 26 20 25 21 21 25 20 21 20 15 16 22 21 19 11 13 11 11 14 5 9 8 19 25
17 16 17 17 18 18 17 18 20 22 22 23 23 24 27 33 23 34 34 33 32 31 21 20 20 20 16 22 19 19 15 24 23 21 18 13 9 13 8 10 10 12 13 15 25
17 15 16 17 18 18 18 18 19 20 21 21 22 23 27 33 13 27 32 36 38 35 28 26 28 22 23 20 23 23 23 20 22 19 12 9 6 13 14 14 15 14 15 15 19
20 18 17 18 18 18 20 20 19 18 18 20 20 21 24 16 9 7 15 15 30 34 31 28 22 25 25 25 23 24 24 22 25 24 8 11 11 15 14 11 17 13 21 19 18
20 20 20 20 18 19 21 22 21 20 18 18 18 18 16 6 16 28 36 32 17 26 35 27 25 23 27 24 24 27 24 24 25 23 16 12 18 15 16 15 14 4 10 18 17
20 20 20 20 19 18 20 22 22 21 20 17 16 16 7 18 29 33 31 37 30 16 32 33 22 23 22 26 26 23 25 25 23 25 18 17 17 16 15 13 14 15 13 11 17
20 20 21 21 21 21 22 23 23 22 20 17 15 11 12 26 21 30 39 30 35 38 22 36 37 22 26 25 23 26 25 25 26 22 22 19 22 22 18 17 17 19 16 16 16
20 20 22 22 23 24 25 26 26 25 23 19 14 14 12 18 21 29 29 36 36 36 40 29 39 29 30 22 28 25 26 24 24 23 22 20 22 21 19 18 20 16 17 16 17
20 21 23 22 24 26 27 28 28 27 22 18 14 16 16 11 14 20 20 19 35 39 41 28 25 26 27 28 21 26 24 31 26 24 22 24 21 20 19 22 21 18 16 17 17
21 21 23 24 26 27 29 30 30 28 17 14 20 4 12 13 8 9 10 16 10 21 26 24 19 20 22 22 24 31 31 23 25 23 23 27 24 20 22 23 22 22 18 18 17
20 21 23 25 27 28 30 23 9 2 14 9 10 14 21 20 6 2 5 9 8 18 20 29 20 24 34 34 31 26 27 31 27 22 27 27 25 24 23 25 21 21 22 21 20
21 22 23 25 28 28 21 8 15 11 12 19 26 31 39 35 27 20 5 8 13 17 21 21 27 32 33 31 29 32 30 31 25 24 24 24 28 23 23 22 22 21 19 22 20
20 22 23 28 27 17 14 15 12 18 8 21 29 30 27 22 29 26 10 9 11 7 23 28 31 33 29 31 33 35 33 30 28 24 26 24 27 25 21 25 22 24 22 17 20
21 21 23 29 17 18 19 16 20 16 6 11 11 8 15 16 11 21 30 11 9 8 18 21 27 33 31 33 32 31 35 28 27 24 21 26 19 20 25 23 24 24 21 20 21
21 22 23 21 20 15 19 19 20 6 7 10 4 10 2 12 2 4 16 17 19 8 4 4 17 30 35 39 32 32 24 30 28 20 21 25 16 21 23 24 25 25 25 19 18
22 22 24 20 17 19 18 19 13 5 7 7 13 11 5 5 16 7 4 9 2 12 13 9 18 11 22 23 28 28 24 22 21 20 21 23 22 25 23 24 26 27 28 23 20
24 26 26 22 16 17 18 10 5 6 12 12 15 12 16 17 10 11 21 8 8 5 14 19 15 14 16 14 23 22 23 16 15 17 9 26 24 26 21 28 25 24 22 26 28
26 30 26 22 18 13 9 3 7 10 14 18 18 29 20 26 12 8 7 15 10 8 4 13 13 13 12 14 14 26 23 12 20 12 22 23 16 30 38 19 21 13 39 22 19
24 23 21 19 16 8 3 6 6 11 13 11 18 21 20 13 9 11 8 15 5 11 7 7 6 3 10 15 19 21 22 28 10 16 12 14 18 29 27 30 32 30 22 16 20
17 23 23 4 1 5 4 13 13 18 23 23 18 21 27 23 13 12 2 3 2 3 3 5 6 19 14 16 15 13 10 16 17 9 16 20 25 21 25 32 24 28 32 27 22
14 6 13 4 0 2 5 9 15 19 20 12 22 19 20 21 20 18 7 8 6 6 5 6 4 2 16 11 15 6 5 11 5 9 11 13 21 34 16 19 28 30 25 13 9
15 5 4 4 6 2 6 9 12 18 19 16 9 17 24 21 20 20 14 12 6 5 2 1 5 4 3 10 13 16 8 16 7 10 6 16 7 13 12 23 21 27 28 13 8
5 9 17 16 5 7 12 19 19 16 15 6 8 17 19 20 19 15 8 5 2 2 1 2 3 4 4 7 13 5 2 4 1 4 24 13 9 14 10 6 10 14 15 12 9
4 3 3 2 8 13 15 14 14 15 18 15 16 19 19 18 17 11 17 7 12 11 6 5 4 2 6 5 2 5 9 4 5 2 5 22 20 8 16 18 21 12 11 8 7
3 4 6 5 7 14 18 16 20 20 20 18 18 17 13 10 19 17 16 13 10 3 5 4 4 6 7 9 9 13 11 7 4 6 5 9 22 20 17 14 14 3 9 9 8
3 3 5 11 15 17 15 16 19 19 19 21 14 20 19 7 13 17 12 10 6 6 6 6 4 4 7 11 10 14 14 13 13 12 14 16 18 14 6 11 15 14 14 14 12
11 18 6 9 13 12 13 18 20 19 20 18 17 18 19 17 13 13 11 17 12 14 15 6 2 2 3 6 3 8 19 18 16 17 14 16 13 10 9 3 13 13 12 11 12
Wind_Direction
345 348 348 347 341 339 339 336 336 339 340 337 337 334 334 315 296 285 257 249 255 256 293 270 274 233 231 235 235 230 244 249 250 259 264 277 192 177 229 257 159 174 66 140 141
341 338 338 340 342 341 337 335 331 331 332 331 329 333 335 337 307 274 261 255 253 260 276 258 251 230 231 231 230 227 237 242 251 246 310 218 191 228 198 242 240 215 112 140 149
350 337 333 333 336 338 336 331 328 327 326 328 327 327 320 326 288 271 265 252 246 239 248 256 252 243 234 229 228 232 237 246 250 274 295 307 207 228 220 220 223 195 152 159 159
1 352 340 332 330 331 331 329 324 323 320 322 325 328 329 326 247 67 46 357 249 233 232 240 253 254 239 230 233 233 237 242 263 276 243 276 253 237 249 232 255 229 169 169 174
353 351 351 345 328 325 325 323 321 317 313 315 316 324 343 280 257 280 319 323 310 220 222 223 232 237 239 238 234 236 235 237 239 248 259 237 263 244 237 231 260 260 145 170 177
352 349 347 342 340 330 323 317 313 312 309 303 307 311 302 268 266 281 308 318 310 236 227 225 227 228 243 238 240 240 244 246 247 258 232 239 242 254 252 262 245 253 185 205 188
351 347 344 340 336 330 324 322 314 303 301 296 287 289 255 251 267 270 291 294 297 292 234 230 233 234 233 245 240 250 251 248 240 239 250 216 238 235 243 251 232 241 228 200 213
347 344 340 335 331 329 322 317 310 303 290 287 274 273 260 272 278 269 273 287 289 287 271 236 220 237 246 246 244 246 242 249 239 234 228 234 237 228 234 237 244 227 227 227 214
344 341 338 335 329 325 321 314 306 295 288 275 267 247 269 281 270 278 265 270 287 289 287 245 253 234 224 238 242 231 240 230 241 236 223 227 229 236 236 224 233 235 222 224 212
339 337 335 332 328 325 322 316 302 284 275 251 240 276 250 261 253 321 308 304 287 292 290 229 236 234 224 217 222 217 227 236 235 225 235 231 230 230 240 247 220 217 228 220 222
335 334 331 329 323 323 328 324 323 217 232 231 232 223 274 276 198 244 354 301 260 270 255 213 219 214 217 218 224 231 226 228 235 234 226 245 233 226 218 243 236 223 208 219 215
333 332 330 327 321 319 315 290 310 294 279 271 270 269 261 262 272 266 230 276 219 252 235 240 219 218 216 217 223 229 236 233 233 228 243 245 237 241 229 227 237 254 226 211 213
332 331 330 327 322 315 312 301 325 328 278 284 264 259 263 246 249 251 180 247 245 283 243 229 209 220 223 219 215 227 227 233 242 224 229 233 248 245 222 233 242 239 239 218 222
327 328 329 331 316 334 303 344 335 336 280 285 251 245 229 239 275 244 233 216 190 240 247 247 238 222 224 233 220 220 225 232 232 239 244 228 233 230 237 232 238 245 237 207 218
324 324 325 325 294 301 312 327 330 317 279 301 289 139 229 175 206 83 255 181 249 208 250 211 227 239 223 226 230 234 225 219 235 242 247 244 238 229 228 224 232 238 244 223 213
319 319 321 319 308 293 324 328 308 243 251 269 293 13 77 316 259 267 103 199 286 253 254 262 287 294 263 268 236 249 253 253 245 230 239 239 245 240 226 238 230 228 229 233 221
316 314 310 295 282 299 308 321 282 237 321 293 348 281 257 282 230 224 241 183 213 222 221 244 254 248 263 285 272 268 228 237 240 237 239 228 232 244 212 224 243 246 236 219 220
310 315 300 276 275 288 312 295 256 284 281 305 324 316 297 28 50 7 342 250 204 254 279 214 250 191 200 220 239 235 231 209 209 200 217 217 217 238 231 250 255 274 234 239 230
316 313 299 285 267 240 237 244 264 282 298 334 327 306 319 334 357 345 11 1 86 28 308 201 209 200 198 203 219 236 229 219 259 247 229 213 223 251 241 238 243 255 264 283 236
310 305 288 344 349 197 212 249 272 294 304 306 294 300 301 318 332 325 32 182 151 90 108 312 264 238 203 213 223 229 258 206 219 196 223 222 206 230 214 227 234 230 242 247 245
297 292 309 9 206 200 240 252 276 284 293 311 308 301 300 314 320 316 316 227 159 147 120 288 264 275 207 192 201 201 211 222 243 218 203 211 220 231 241 230 225 238 245 216 187
268 283 300 290 298 227 270 278 288 288 301 305 277 301 291 307 308 310 21 33 140 33 73 254 297 284 245 297 223 195 218 229 210 172 230 230 253 183 217 232 226 225 222 207 186
286 277 284 272 265 276 282 286 288 288 306 297 284 285 300 294 302 304 341 342 140 51 53 255 17 297 233 194 37 3 8 344 339 286 205 198 221 260 294 344 64 73 68 48 57
290 290 300 258 274 291 299 307 307 308 300 304 302 301 304 288 279 277 302 195 267 318 192 243 187 251 305 324 297 300 333 349 333 270 208 213 219 218 36 15 10 73 84 81 70
247 247 271 290 276 281 289 298 303 299 292 289 298 298 321 310 288 279 283 286 320 176 180 243 259 213 258 264 271 295 297 310 307 315 270 209 229 231 20 339 342 301 100 88 83
259 257 277 286 288 284 288 289 289 294 304 308 297 304 307 292 311 318 308 304 300 283 327 196 255 224 271 270 268 284 279 271 260 255 272 275 278 285 265 315 322 338 353 14 357
247 264 275 271 277 282 278 284 289 303 298 291 289 298 296 301 312 288 289 289 263 276 281 232 260 301 302 34 48 290 248 245 252 254 253 257 265 284 320 30 287 302 331 328 319